Date,TemperatureHighF,TemperatureAvgF,TemperatureLowF,DewpointHighF,DewpointAvgF,DewpointLowF,HumidityHigh,HumidityAvg,HumidityLow,PressureMaxIn,PressureMinIn,WindSpeedMaxMPH,WindSpeedAvgMPH,GustSpeedMaxMPH,PrecipitationSumIn
2013-1-1,37,33,31,26,24,22,80,71,63,30.48,30.37,11,7,28,0.00
2013-1-2,37,34,32,26,24,23,71,67,61,30.38,30.24,12,10,29,0.00
2013-1-3,36,34,32,32,24,22,91,69,58,30.30,30.18,12,8,34,0.00
2013-1-4,42,36,33,37,32,26,97,85,71,30.38,30.21,10,3,19,0.01
2013-1-5,36,34,33,31,29,26,85,80,75,30.27,30.19,11,5,24,0.01
2013-1-6,43,37,33,41,35,31,97,94,83,30.28,30.10,1,0,5,0.29
2013-1-7,52,48,40,49,46,39,98,92,89,30.23,30.00,9,3,15,0.13
2013-1-8,54,51,45,50,47,43,98,88,81,30.22,29.92,9,3,19,0.13
2013-1-9,52,43,35,47,40,34,96,89,73,30.00,29.72,8,2,21,0.36
2013-1-10,38,36,33,36,34,32,98,95,92,30.13,30.00,2,0,6,0.29
2013-1-11,38,32,26,34,30,26,98,94,68,30.33,30.12,1,0,4,0.02
2013-1-12,37,29,24,32,27,24,98,93,79,30.43,30.33,2,0,5,0.00
2013-1-13,36,29,24,29,26,23,97,89,70,30.53,30.43,2,0,5,0.00
2013-1-14,32,30,27,32,28,26,98,93,88,30.59,30.51,1,0,4,0.00
2013-1-15,37,34,32,36,34,32,98,96,94,30.69,30.60,0,0,1,0.01
2013-1-16,36,34,32,34,33,31,96,95,91,30.68,30.51,1,0,3,0.00
2013-1-17,42,34,28,33,29,27,98,83,65,30.52,30.34,5,1,9,0.00
2013-1-18,47,32,24,36,28,23,97,86,61,30.35,30.28,2,0,9,0.00
2013-1-19,44,31,22,34,27,21,98,87,64,30.37,30.29,6,1,11,0.01
2013-1-20,42,33,26,29,26,25,94,77,56,30.39,30.26,8,3,17,0.00
2013-1-21,43,34,25,26,25,22,89,69,50,30.31,30.18,9,3,17,0.00
2013-1-22,38,33,30,25,24,23,76,69,58,30.19,29.97,10,6,24,0.00
2013-1-23,35,33,31,33,28,23,97,81,65,30.24,29.93,9,3,18,0.25
2013-1-24,45,38,33,40,37,32,98,94,76,30.26,30.12,3,0,7,0.40
2013-1-25,51,41,38,50,41,37,99,98,92,30.16,29.98,2,0,4,0.23
2013-1-26,45,41,38,41,39,37,99,93,84,30.11,29.96,4,1,8,0.09
2013-1-27,42,40,38,39,38,37,97,94,88,30.17,30.07,5,2,13,0.31
2013-1-28,43,41,39,42,40,38,98,97,95,30.23,30.10,4,2,10,1.16
2013-1-29,46,44,42,45,43,41,98,96,92,30.49,30.22,5,2,12,0.71
2013-1-30,48,45,43,47,44,42,98,95,92,30.48,30.43,5,3,11,0.44
2013-1-31,53,47,44,48,45,44,99,93,76,30.47,30.35,2,0,7,0.01
2013-2-1,55,47,42,48,44,38,99,90,66,30.39,30.28,6,1,17,0.00
2013-2-2,57,48,35,43,39,34,97,72,53,30.32,30.27,10,4,27,0.00
2013-2-3,48,41,33,44,40,32,98,94,85,30.36,30.25,1,0,2,0.00
2013-2-4,53,45,39,44,42,38,98,88,67,30.26,29.96,1,0,4,0.00
2013-2-5,53,46,43,46,43,41,95,87,72,30.06,29.94,7,2,17,0.10
2013-2-6,51,46,42,43,41,39,92,83,66,30.12,29.87,7,1,15,0.12
2013-2-7,50,42,33,40,37,33,97,85,58,30.16,29.94,5,1,17,0.04
2013-2-8,44,36,30,37,33,30,98,91,74,30.31,30.16,1,0,4,0.00
2013-2-9,42,38,30,41,36,29,98,95,90,30.32,30.28,2,0,5,0.00
2013-2-10,47,42,40,41,39,37,97,87,71,30.37,30.32,1,0,6,0.00
2013-2-11,45,42,41,42,39,36,95,88,77,30.41,30.33,3,1,7,0.02
2013-2-12,56,48,44,48,45,42,95,88,71,30.49,30.40,4,2,12,0.02
2013-2-13,50,47,43,46,44,40,95,88,82,30.53,30.43,4,1,10,0.01
2013-2-14,54,45,36,46,41,36,98,88,69,30.59,30.52,1,0,5,0.00
2013-2-15,61,46,34,46,40,34,99,82,53,30.52,30.21,5,1,13,0.00
2013-2-16,50,42,35,47,40,34,98,93,79,30.30,30.22,3,0,9,0.10
2013-2-17,46,40,33,39,36,32,97,86,61,30.32,30.12,2,0,5,0.00
2013-2-18,47,39,31,38,34,30,97,83,59,30.12,29.76,3,0,7,0.00
2013-2-19,56,43,34,43,37,32,97,80,47,30.02,29.72,3,0,7,0.11
2013-2-20,47,40,30,41,37,29,97,89,71,30.11,30.02,4,1,8,0.06
2013-2-21,44,42,39,40,38,36,94,89,82,30.21,30.10,7,3,18,0.05
2013-2-22,46,43,37,44,40,35,95,89,81,30.19,29.89,9,4,23,0.43
2013-2-23,47,40,36,41,36,34,95,86,68,30.46,30.08,6,2,12,0.06
2013-2-24,51,42,35,39,35,33,96,77,51,30.45,30.07,6,1,11,0.00
2013-2-25,48,42,37,43,38,34,95,86,65,30.40,30.03,8,2,20,0.34
2013-2-26,49,42,35,39,36,33,97,81,58,30.41,30.26,2,0,9,0.00
2013-2-27,53,47,42,45,41,37,96,81,59,30.33,30.25,3,0,7,0.06
2013-2-28,56,52,45,52,49,44,99,92,87,30.45,30.22,6,3,14,0.13
2013-3-1,61,56,53,52,51,50,93,84,70,30.47,30.32,5,2,10,0.00
2013-3-2,56,50,41,51,47,39,97,89,74,30.33,30.17,4,1,10,0.10
2013-3-3,51,40,32,40,35,30,98,84,52,30.34,30.27,3,0,7,0.01
2013-3-4,55,43,28,31,28,25,98,59,36,30.28,29.93,7,3,17,0.01
2013-3-5,45,42,40,40,34,26,93,74,49,29.93,29.66,5,2,12,0.32
2013-3-6,44,42,40,42,39,36,95,90,82,29.99,29.56,7,2,15,0.39
2013-3-7,58,43,30,40,36,30,98,77,41,30.08,29.99,2,0,5,0.00
2013-3-8,61,43,27,41,34,26,98,75,38,30.23,30.05,2,0,5,0.01
2013-3-9,61,43,28,42,34,27,97,76,34,30.51,30.23,2,0,5,0.00
2013-3-10,50,42,32,44,38,31,95,86,74,30.52,30.44,1,0,4,0.01
2013-3-11,54,49,44,50,46,42,95,91,82,30.45,30.25,1,0,3,0.03
2013-3-12,61,53,46,50,48,45,98,85,62,30.25,30.17,4,1,12,0.00
2013-3-13,66,54,45,50,47,43,95,79,53,30.25,30.10,3,0,6,0.00
2013-3-14,60,53,46,49,46,40,96,79,49,30.22,30.06,6,1,14,0.00
2013-3-15,66,57,49,51,48,43,90,74,45,30.25,30.16,5,1,12,0.00
2013-3-16,50,46,38,46,43,37,96,89,80,30.19,30.02,6,1,15,0.26
2013-3-17,50,42,37,39,36,32,95,78,52,30.32,30.15,5,1,12,0.01
2013-3-18,56,44,37,39,36,34,91,76,49,30.31,30.18,4,1,13,0.00
2013-3-19,52,44,36,44,36,30,96,75,52,30.18,29.70,8,3,18,0.48
2013-3-20,53,48,39,50,43,34,98,83,60,30.17,29.54,8,3,27,0.41
2013-3-21,49,42,38,40,35,32,91,79,54,30.32,30.17,5,2,14,0.06
2013-3-22,49,39,33,38,34,30,96,85,52,30.42,30.31,3,0,8,0.07
2013-3-23,52,39,32,38,32,25,98,79,34,30.42,30.29,2,0,6,0.00
2013-3-24,54,45,34,34,32,29,92,62,43,30.29,30.11,6,3,15,0.00
2013-3-25,60,52,44,37,31,27,61,46,34,30.11,29.92,6,3,12,0.00
2013-3-26,54,47,38,46,41,34,91,82,61,30.05,29.98,2,0,5,0.00
2013-3-27,65,52,38,50,44,36,97,78,46,30.01,29.91,3,0,8,0.14
2013-3-28,66,54,45,51,47,44,98,80,45,30.14,30.01,3,0,7,0.00
2013-3-29,72,57,48,53,48,45,93,74,43,30.22,30.14,3,0,6,0.00
2013-3-30,78,58,40,52,46,39,97,68,36,30.20,29.98,4,1,11,0.00
2013-3-31,78,62,45,53,47,41,87,59,32,30.01,29.89,4,1,8,0.00
2013-4-1,66,58,53,52,50,48,85,74,57,30.18,30.00,4,1,9,0.00
2013-4-2,66,56,49,50,48,46,89,77,54,30.22,30.13,3,1,6,0.00
2013-4-3,65,54,42,52,48,41,97,82,57,30.19,29.92,2,0,6,0.00
2013-4-4,60,56,52,56,52,49,96,87,73,29.92,29.71,6,1,13,0.18
2013-4-5,59,54,50,51,49,48,93,84,68,29.96,29.83,7,3,17,0.22
2013-4-6,56,50,44,49,46,41,96,88,60,30.02,29.74,5,2,13,0.95
2013-4-7,53,48,42,48,43,39,96,85,64,29.98,29.57,10,3,24,0.30
2013-4-8,54,46,41,47,42,39,94,85,65,30.31,29.98,3,0,6,0.05
2013-4-9,58,48,37,47,42,37,98,81,55,30.39,30.26,1,0,4,0.00
2013-4-10,61,53,44,54,46,38,96,77,57,30.35,30.12,8,1,19,0.32
2013-4-11,57,47,36,44,40,34,97,78,58,30.37,30.20,2,0,5,0.00
2013-4-12,54,44,33,46,38,32,96,84,59,30.20,29.87,3,0,9,0.15
2013-4-13,53,45,37,42,37,32,96,75,51,30.10,29.93,7,2,17,0.15
2013-4-14,53,43,40,43,39,36,97,88,63,30.10,29.95,3,1,7,0.38
2013-4-15,57,46,36,42,39,34,98,77,44,30.19,29.97,4,1,9,0.00
2013-4-16,61,47,36,43,39,35,97,76,40,30.42,30.19,5,1,10,0.00
2013-4-17,61,47,32,46,38,31,97,73,39,30.52,30.41,2,0,6,0.01
2013-4-18,60,52,44,48,43,39,94,73,52,30.50,30.33,2,0,6,0.04
2013-4-19,57,52,49,53,49,46,95,88,76,30.33,30.16,6,2,14,0.37
2013-4-20,60,52,48,47,44,41,93,74,53,30.36,30.27,3,1,8,0.00
2013-4-21,53,49,42,49,44,40,96,84,72,30.33,30.26,2,0,8,0.03
2013-4-22,66,51,35,44,35,26,98,63,23,30.45,30.33,5,1,14,0.01
2013-4-23,72,53,35,41,35,27,91,56,20,30.40,30.16,2,0,6,0.00
2013-4-24,78,58,36,43,36,33,91,50,21,30.28,30.02,5,1,10,0.00
2013-4-25,79,60,40,48,42,36,90,56,27,30.16,30.03,3,0,9,0.00
2013-4-26,81,61,42,52,44,32,95,61,17,30.26,30.16,2,0,7,0.00
2013-4-27,76,58,42,48,43,38,89,61,28,30.27,30.19,4,0,6,0.00
2013-4-28,70,58,50,50,45,35,94,65,30,30.27,30.09,5,1,9,0.02
2013-4-29,62,52,41,49,40,30,94,65,35,30.24,30.06,7,1,17,0.14
2013-4-30,59,47,39,43,35,31,83,63,39,30.46,30.24,3,0,6,0.00
2013-5-1,74,53,32,42,36,30,93,56,26,30.54,30.45,3,1,8,0.00
2013-5-2,84,70,51,43,38,33,59,32,20,30.47,30.24,5,1,10,0.00
2013-5-3,84,64,43,50,41,35,80,46,25,30.31,30.13,4,0,8,0.00
2013-5-4,83,67,44,49,40,32,88,44,17,30.14,29.91,8,2,16,0.00
2013-5-5,85,69,47,47,41,35,79,41,19,29.91,29.70,7,2,18,0.00
2013-5-6,86,67,51,55,49,45,82,55,26,29.88,29.74,3,1,7,0.00
2013-5-7,79,64,50,55,50,46,88,63,36,30.03,29.88,3,1,9,0.00
2013-5-8,68,58,50,54,51,48,90,76,57,30.16,30.03,3,0,6,0.00
2013-5-9,80,62,49,56,52,47,95,71,35,30.21,30.07,2,0,6,0.00
2013-5-10,88,69,50,58,53,46,94,61,24,30.21,30.09,2,0,7,0.00
2013-5-11,87,72,57,59,55,50,80,58,32,30.19,29.99,3,0,7,0.00
2013-5-12,71,64,57,62,58,56,95,82,64,30.13,30.06,3,0,5,0.16
2013-5-13,70,60,49,57,52,42,96,76,47,30.24,30.05,7,2,16,0.04
2013-5-14,69,56,42,46,41,35,94,62,30,30.25,30.11,3,0,6,0.00
2013-5-15,59,53,48,52,48,43,91,82,68,30.13,30.04,2,0,6,0.03
2013-5-16,69,57,53,57,53,50,95,86,57,30.04,29.93,3,0,6,0.17
2013-5-17,64,56,49,52,49,45,96,79,50,30.11,30.00,3,1,8,0.10
2013-5-18,58,53,49,53,50,48,98,91,70,30.29,30.11,2,0,6,0.21
2013-5-19,64,56,50,53,49,45,99,79,52,30.42,30.29,2,0,6,0.00
2013-5-20,72,58,44,52,47,42,95,69,42,30.36,29.91,3,0,7,0.00
2013-5-21,59,50,43,49,45,41,95,86,63,30.00,29.83,4,1,13,0.51
2013-5-22,48,45,42,46,42,39,95,91,88,30.00,29.95,4,2,14,0.86
2013-5-23,56,48,45,49,46,43,95,90,70,30.04,29.98,4,1,10,0.86
2013-5-24,60,52,47,51,47,45,96,85,63,30.10,29.99,5,1,16,0.34
2013-5-25,69,57,49,50,48,42,97,73,40,30.09,29.94,3,1,9,0.00
2013-5-26,66,58,53,54,51,48,96,77,57,30.05,29.94,4,1,9,0.08
2013-5-27,65,55,50,59,52,47,97,90,73,30.01,29.75,5,1,9,0.90
2013-5-28,65,57,51,53,49,45,97,77,51,29.95,29.78,5,1,12,0.07
2013-5-29,65,56,50,53,50,46,97,82,54,30.07,29.66,7,2,19,0.36
2013-5-30,65,55,48,51,48,44,92,77,51,30.27,30.07,4,1,11,0.02
2013-5-31,72,59,48,51,48,43,95,69,38,30.35,30.23,3,0,7,0.00
2013-6-1,77,61,46,55,50,45,95,70,40,30.26,30.02,3,0,9,0.01
2013-6-2,77,63,54,54,51,49,86,66,40,30.10,30.03,3,0,10,0.00
2013-6-3,77,61,50,54,50,47,88,69,40,30.14,30.03,3,0,10,0.00
2013-6-4,87,68,47,59,52,44,93,61,31,30.10,29.96,2,0,8,0.00
2013-6-5,87,71,54,61,55,49,89,60,28,30.08,29.97,2,0,11,0.00
2013-6-6,87,69,54,61,54,44,89,60,33,30.06,29.98,3,0,9,0.00
2013-6-7,81,65,50,58,48,39,84,57,26,30.16,30.06,2,0,9,0.00
2013-6-8,81,64,48,54,48,41,91,60,28,30.19,30.06,3,0,11,0.00
2013-6-9,75,61,50,52,48,44,85,64,36,30.13,29.99,4,0,8,0.00
2013-6-10,74,58,45,51,45,42,91,65,38,30.05,29.90,3,0,8,0.00
2013-6-11,66,58,53,53,46,43,82,67,46,30.15,30.00,4,1,9,0.03
2013-6-12,66,56,52,53,49,46,92,77,55,30.19,30.14,2,0,9,0.04
2013-6-13,64,56,50,57,51,48,95,85,65,30.30,30.18,5,1,9,0.48
2013-6-14,70,60,52,52,50,48,89,71,49,30.30,30.00,3,0,8,0.00
2013-6-15,82,62,46,56,51,45,96,71,35,30.01,29.90,3,0,8,0.00
2013-6-16,74,64,52,57,54,49,92,72,53,30.11,30.01,3,0,8,0.00
2013-6-17,80,67,55,55,52,49,86,60,36,30.11,29.93,4,1,14,0.00
2013-6-18,74,63,56,53,50,44,86,63,39,30.02,29.93,4,1,14,0.02
2013-6-19,67,59,52,56,50,48,88,74,52,30.10,29.96,3,1,10,0.03
2013-6-20,68,59,52,58,52,49,93,77,52,30.15,30.05,4,1,12,0.26
2013-6-21,71,61,54,53,51,49,89,71,48,30.19,30.13,3,0,8,0.00
2013-6-22,82,66,48,57,51,46,96,62,31,30.14,29.84,3,1,7,0.00
2013-6-23,70,65,60,63,59,54,95,81,65,29.84,29.65,1,0,5,0.13
2013-6-24,70,61,56,60,54,51,95,78,53,29.73,29.64,4,1,12,0.11
2013-6-25,68,62,57,62,57,53,95,84,64,29.88,29.69,3,0,12,0.17
2013-6-26,74,65,58,62,58,55,96,78,55,30.06,29.87,3,0,6,0.24
2013-6-27,83,71,62,63,60,58,89,71,48,30.16,30.02,3,0,8,0.00
2013-6-28,94,76,59,68,63,58,96,67,34,30.16,30.00,4,0,8,0.00
2013-6-29,91,76,61,63,60,56,87,59,32,30.11,29.96,3,0,9,0.00
2013-6-30,100,80,60,69,64,58,93,61,35,29.99,29.81,2,0,8,0.00
2013-7-1,94,79,66,70,64,60,81,61,42,30.01,29.90,3,0,9,0.00
2013-7-2,91,75,62,66,60,53,87,62,33,30.08,30.01,2,0,12,0.00
2013-7-3,88,72,58,55,51,39,77,51,19,30.15,30.02,3,0,9,0.00
2013-7-4,79,64,52,55,52,49,89,66,43,30.16,30.04,3,0,9,0.00
2013-7-5,74,64,56,56,52,50,81,67,50,30.07,29.95,3,0,9,0.00
2013-7-6,78,63,54,58,54,50,87,72,48,29.99,29.85,3,0,8,0.00
2013-7-7,80,65,56,60,56,52,89,73,49,29.99,29.88,3,0,8,0.00
2013-7-8,83,66,55,60,55,51,88,69,41,30.10,29.99,3,0,8,0.00
2013-7-9,92,74,56,63,59,54,94,63,33,30.08,29.97,3,0,10,0.00
2013-7-10,84,68,56,58,53,46,83,60,39,30.08,29.94,2,0,10,0.00
2013-7-11,79,66,52,51,48,45,81,54,35,30.08,29.96,3,1,10,0.00
2013-7-12,76,62,48,54,49,44,88,64,42,30.12,30.01,3,0,10,0.00
2013-7-13,84,66,49,53,49,45,88,57,31,30.17,30.02,2,0,9,0.00
2013-7-14,91,71,51,56,50,43,93,54,20,30.10,29.95,3,0,7,0.00
2013-7-15,90,73,52,57,51,44,86,49,30,30.03,29.80,2,1,10,0.00
2013-7-16,90,72,57,58,54,48,79,54,24,29.98,29.77,4,1,10,0.00
2013-7-17,79,67,61,58,55,53,80,67,44,30.18,29.98,3,1,11,0.00
2013-7-18,84,68,53,60,55,48,93,67,30,30.22,30.07,4,0,9,0.00
2013-7-19,84,66,54,63,57,52,92,73,47,30.15,30.00,3,0,10,0.00
2013-7-20,80,67,57,62,57,54,92,73,51,30.09,29.94,3,0,7,0.00
2013-7-21,84,66,56,62,56,52,88,72,46,30.01,29.89,3,0,9,0.00
2013-7-22,85,67,57,61,56,53,90,72,37,30.06,29.95,3,0,9,0.00
2013-7-23,91,71,56,64,59,54,94,70,37,30.05,29.92,3,0,9,0.00
2013-7-24,93,74,56,62,57,52,91,60,27,30.05,29.95,3,0,8,0.00
2013-7-25,93,73,54,59,55,51,89,57,25,30.09,30.00,2,0,8,0.00
2013-7-26,92,72,54,58,52,47,87,54,21,30.16,30.05,2,0,10,0.00
2013-7-27,83,65,50,55,51,47,90,62,36,30.20,30.00,3,0,10,0.00
2013-7-28,76,61,50,55,51,47,91,72,47,30.08,29.98,3,0,10,0.00
2013-7-29,78,66,55,58,54,50,83,66,43,30.03,29.94,3,0,9,0.00
2013-7-30,84,67,53,65,56,51,92,70,40,30.15,30.03,4,0,7,0.00
2013-7-31,78,66,59,61,58,55,89,76,50,30.12,30.00,3,0,7,0.00
2013-8-1,66,61,57,57,55,54,92,81,70,30.12,30.06,3,0,4,0.00
2013-8-2,72,64,58,57,55,53,86,72,54,30.16,30.10,2,0,5,0.00
2013-8-3,84,68,59,61,58,55,90,71,44,30.12,29.98,3,0,7,0.00
2013-8-4,92,73,56,64,60,54,93,65,32,30.03,29.88,3,0,10,0.00
2013-8-5,92,74,58,64,60,54,91,63,30,30.01,29.89,3,0,10,0.00
2013-8-6,95,74,56,61,54,43,86,54,21,30.00,29.88,3,0,9,0.00
2013-8-7,89,73,58,58,56,52,88,59,32,30.03,29.94,3,1,13,0.00
2013-8-8,84,68,60,63,58,55,87,71,48,30.05,29.90,4,0,9,0.00
2013-8-9,81,69,58,63,58,54,85,70,51,29.95,29.85,2,0,8,0.01
2013-8-10,84,70,59,67,61,56,93,76,48,30.03,29.90,4,0,9,0.03
2013-8-11,76,66,59,61,58,56,91,76,58,30.08,29.99,2,0,8,0.00
2013-8-12,81,68,58,60,57,54,90,70,46,30.08,30.00,3,0,9,0.00
2013-8-13,88,70,53,59,54,44,92,62,24,30.11,29.92,3,0,9,0.00
2013-8-14,87,70,56,60,54,45,89,61,24,29.97,29.91,3,0,14,0.00
2013-8-15,82,73,66,68,63,58,87,71,55,29.98,29.93,2,0,6,0.00
2013-8-16,85,72,64,67,63,57,94,76,49,30.04,29.95,3,0,9,0.00
2013-8-17,86,71,56,61,57,53,89,64,40,30.09,30.01,3,0,9,0.00
2013-8-18,86,71,62,60,58,55,85,66,39,30.14,30.04,3,0,11,0.00
2013-8-19,87,70,56,60,57,53,94,67,34,30.12,30.04,3,0,13,0.00
2013-8-20,86,68,53,58,53,48,90,62,33,30.14,29.99,2,0,8,0.00
2013-8-21,92,72,52,59,54,48,90,57,31,30.01,29.83,2,0,7,0.00
2013-8-22,86,70,56,64,56,51,86,63,39,29.91,29.83,3,0,7,0.01
2013-8-23,78,67,61,62,58,56,87,73,48,29.95,29.87,3,1,9,0.00
2013-8-24,80,68,62,60,56,52,86,68,43,29.92,29.85,3,0,7,0.00
2013-8-25,72,63,55,62,57,52,93,82,65,29.94,29.90,1,0,5,0.16
2013-8-26,82,68,60,62,57,49,96,73,33,29.99,29.89,5,1,15,0.02
2013-8-27,86,71,61,64,59,56,90,68,44,29.98,29.79,3,0,8,0.00
2013-8-28,84,73,61,66,61,58,95,69,46,29.91,29.84,2,0,6,0.07
2013-8-29,79,70,65,68,64,62,97,82,59,30.08,29.84,6,1,15,0.24
2013-8-30,83,71,64,69,61,57,93,72,44,30.15,30.03,3,0,9,0.00
2013-8-31,92,72,54,62,58,53,96,66,33,30.06,29.81,3,0,7,0.00
2013-9-1,86,71,57,60,56,52,89,62,35,29.91,29.79,4,1,10,0.00
2013-9-2,83,73,63,62,58,54,86,61,42,29.93,29.87,9,1,9,0.04
2013-9-3,80,68,60,63,60,56,97,76,48,30.00,29.92,2,0,7,0.15
2013-9-4,73,66,60,62,60,57,92,79,66,30.06,29.98,1,0,6,0.00
2013-9-5,67,63,58,62,59,56,94,88,82,30.05,29.96,5,0,19,0.24
2013-9-6,71,63,58,62,58,56,96,87,66,30.14,30.03,5,2,12,1.13
2013-9-7,61,54,52,58,53,51,98,97,91,30.12,30.06,1,0,2,0.00
2013-9-8,87,74,55,64,61,54,97,67,41,30.08,29.98,3,0,7,0.00
2013-9-9,85,69,59,65,62,57,96,79,47,30.04,29.92,3,0,11,0.00
2013-9-10,94,74,60,67,60,52,96,69,30,29.93,29.77,3,0,11,0.00
2013-9-11,99,78,60,66,61,57,91,62,28,29.93,29.81,3,0,9,0.00
2013-9-12,87,70,58,65,61,56,95,74,46,30.01,29.89,3,0,7,0.00
2013-9-13,78,65,60,64,60,58,94,84,61,29.98,29.84,2,0,6,0.00
2013-9-14,81,69,61,65,62,60,95,80,53,29.87,29.70,2,0,6,0.00
2013-9-15,67,64,60,62,60,58,95,88,77,29.89,29.72,2,0,10,0.03
2013-9-16,71,63,60,60,58,55,95,84,61,29.99,29.89,4,1,10,0.06
2013-9-17,71,61,54,58,53,49,96,78,49,30.01,29.88,2,0,7,0.00
2013-9-18,72,59,51,54,50,47,91,75,45,30.10,30.01,2,0,7,0.00
2013-9-19,83,62,45,54,48,44,96,66,29,30.03,29.78,5,1,13,0.00
2013-9-20,74,61,49,57,52,46,93,74,49,29.79,29.66,4,1,12,0.00
2013-9-21,65,60,54,60,56,52,96,88,73,29.79,29.69,3,0,8,0.26
2013-9-22,62,57,55,57,54,50,96,89,64,29.87,29.68,8,2,20,0.27
2013-9-23,63,57,53,56,54,52,97,89,74,30.01,29.87,4,1,11,0.33
2013-9-24,61,53,50,54,51,48,98,93,69,30.00,29.87,3,0,10,0.54
2013-9-25,60,52,47,52,49,46,97,88,68,30.05,29.87,1,0,5,0.00
2013-9-26,67,54,47,52,48,46,97,83,54,30.18,30.05,2,0,6,0.00
2013-9-27,56,52,46,54,49,45,96,90,81,30.18,29.93,5,2,15,0.15
2013-9-28,65,58,52,58,56,50,96,91,78,29.93,29.50,8,4,25,1.47
2013-9-29,57,54,52,56,52,49,95,91,85,29.70,29.38,8,3,24,1.13
2013-9-30,59,53,50,55,50,47,94,88,78,30.02,29.61,6,2,20,0.56
2013-10-1,60,51,44,53,47,43,96,89,65,30.21,30.00,4,1,14,0.53
2013-10-2,54,47,42,49,45,42,97,91,78,30.21,30.10,3,0,10,0.29
2013-10-3,56,48,39,50,45,38,98,91,73,30.45,30.20,1,0,4,0.00
2013-10-4,67,49,36,53,45,35,98,86,54,30.47,30.35,2,0,8,0.00
2013-10-5,72,55,40,52,46,39,97,73,44,30.36,30.15,3,0,8,0.01
2013-10-6,77,57,39,53,44,38,97,68,29,30.15,29.97,5,0,12,0.00
2013-10-7,63,56,51,53,49,45,96,79,56,30.15,29.99,4,1,11,0.13
2013-10-8,56,50,40,52,48,39,96,91,75,30.16,29.99,2,0,8,0.22
2013-10-9,63,48,40,49,43,39,97,85,50,30.14,29.99,2,0,6,0.00
2013-10-10,61,52,43,51,47,41,96,85,59,30.10,29.98,2,0,7,0.00
2013-10-11,59,52,47,49,47,45,96,83,62,30.16,30.10,1,0,4,0.00
2013-10-12,56,49,40,50,46,39,96,89,73,30.19,30.08,1,0,4,0.02
2013-10-13,64,49,40,50,45,39,97,87,57,30.33,30.19,2,0,7,0.00
2013-10-14,68,51,38,50,44,37,97,80,46,30.39,30.30,3,0,6,0.00
2013-10-15,68,52,38,43,40,37,97,70,37,30.35,30.15,6,1,14,0.01
2013-10-16,66,50,38,48,42,36,96,78,45,30.18,30.12,2,0,6,0.00
2013-10-17,68,52,41,53,47,39,97,84,58,30.26,30.16,2,0,6,0.00
2013-10-18,71,55,40,48,42,39,97,68,36,30.20,30.09,6,1,14,0.00
2013-10-19,71,50,36,49,43,35,96,79,41,30.17,30.10,2,0,6,0.00
2013-10-20,64,48,38,52,45,37,97,90,62,30.18,30.07,2,0,6,0.00
2013-10-21,74,59,43,54,47,42,98,70,41,30.11,29.99,4,1,14,0.01
2013-10-22,75,58,43,53,48,42,95,72,41,30.06,29.95,4,0,11,0.00
2013-10-23,73,56,42,54,48,40,96,77,49,30.02,29.94,2,0,9,0.00
2013-10-24,70,53,43,59,49,42,97,86,54,30.11,29.99,1,0,4,0.00
2013-10-25,56,52,45,51,49,44,97,92,82,30.28,30.11,1,0,4,0.01
2013-10-26,59,51,44,50,48,43,96,89,71,30.30,30.18,1,0,4,0.00
2013-10-27,55,49,46,52,46,44,96,91,79,30.20,29.84,4,0,12,0.37
2013-10-28,59,48,35,45,35,29,97,67,33,29.95,29.83,8,2,23,0.01
2013-10-29,35,34,32,32,31,30,92,90,88,29.97,29.94,0,0,1,0.00
2013-10-30,58,53,46,46,41,38,90,64,48,30.21,30.17,2,0,7,0.01
2013-10-31,60,53,48,52,49,45,95,87,74,30.29,30.17,4,0,9,0.04
2013-11-1,61,52,46,52,49,45,97,90,70,30.30,29.92,2,0,9,0.15
2013-11-2,58,51,44,51,46,39,97,83,54,30.07,29.74,6,2,21,0.71
2013-11-3,51,45,42,45,42,40,95,88,71,30.17,30.06,4,1,12,0.07
2013-11-4,48,46,44,47,44,43,97,95,91,30.19,30.14,2,0,6,0.42
2013-11-5,53,50,45,52,48,44,98,96,92,30.26,30.11,4,1,11,0.11
2013-11-6,54,50,48,53,50,48,98,97,95,30.31,30.10,3,0,8,0.46
2013-11-7,56,51,48,54,48,44,99,90,75,30.14,29.89,7,3,22,0.48
2013-11-8,48,48,47,45,45,44,92,90,89,30.17,30.14,3,1,9,0.00
2013-11-16,46,46,46,42,42,42,87,85,84,29.87,29.83,5,2,11,0.10
2013-11-17,54,50,46,47,44,42,91,81,72,30.00,29.87,7,4,18,0.00
2013-11-18,55,52,50,50,47,43,96,82,72,29.99,29.73,6,2,8,0.26
2013-11-19,53,47,35,51,44,31,97,89,73,30.05,29.71,8,2,13,0.43
2013-11-20,47,35,27,37,25,19,97,70,38,30.44,30.05,4,0,8,0.01
2013-11-21,45,37,26,24,17,12,86,46,27,30.61,30.43,6,2,20,0.00
2013-11-22,44,39,35,20,16,11,44,39,35,30.60,30.43,11,7,27,0.00
2013-11-23,47,42,38,21,19,17,48,40,31,30.44,30.20,11,7,24,0.00
2013-11-24,52,42,33,27,23,19,74,47,32,30.30,30.18,10,4,24,0.00
2013-11-25,49,42,35,27,25,23,68,51,38,30.36,30.30,9,3,23,0.00
2013-11-26,52,43,33,30,28,26,78,55,41,30.30,30.09,5,2,14,0.00
2013-11-27,50,44,41,31,29,27,60,55,47,30.09,29.98,8,5,21,0.00
2013-11-28,53,44,36,34,31,29,83,61,48,30.23,30.04,9,4,22,0.00
2013-11-29,46,38,28,40,34,26,94,86,73,30.39,30.23,1,0,4,0.02
2013-11-30,51,46,41,46,42,39,95,87,72,30.41,30.23,1,0,5,0.10
2013-12-1,56,53,48,53,50,46,97,93,87,30.23,29.92,10,5,27,1.10
2013-12-2,51,41,34,50,39,33,97,91,69,30.07,29.92,4,0,9,0.20
2013-12-3,42,35,25,37,27,18,97,75,40,30.31,30.07,7,1,17,0.01
2013-12-4,37,28,20,21,17,14,94,66,42,30.37,30.30,5,2,16,0.00
2013-12-5,31,27,24,17,15,13,69,60,48,30.33,30.20,7,3,22,0.00
2013-12-6,27,25,22,18,14,8,85,63,50,30.20,30.01,20,7,26,0.00
2013-12-7,28,22,17,9,5,2,63,48,35,30.46,30.14,7,4,20,0.00
2013-12-8,29,19,11,12,9,5,83,66,44,30.63,30.46,3,0,9,0.00
2013-12-9,28,21,11,19,14,8,91,75,60,30.65,30.56,1,0,3,0.00
2013-12-10,36,29,23,28,24,19,94,80,67,30.57,30.43,1,0,3,0.00
2013-12-11,44,30,21,32,26,20,96,84,57,30.43,30.24,4,1,14,0.00
2013-12-12,39,34,23,36,31,21,96,90,68,30.25,30.15,1,0,3,0.12
2013-12-13,46,42,36,45,41,34,98,97,96,30.46,30.24,1,0,4,0.05
2013-12-14,42,39,36,41,38,36,98,97,96,30.49,30.39,1,0,3,0.00
2013-12-15,46,41,37,44,40,36,98,96,90,30.51,30.44,1,0,3,0.02
2013-12-16,42,41,40,42,41,39,98,98,97,30.50,30.27,1,0,4,0.00
2013-12-17,40,37,33,39,36,33,98,97,96,30.27,30.21,2,0,4,0.00
2013-12-18,42,37,29,40,36,29,98,96,92,30.21,30.07,1,0,3,0.10
2013-12-19,38,32,28,36,31,28,98,96,88,30.35,30.14,1,0,5,0.00
2013-12-20,46,37,31,45,36,30,98,95,93,30.26,29.89,7,2,20,0.12
2013-12-21,50,47,45,48,46,44,99,95,88,30.25,29.95,3,0,12,0.17
2013-12-22,52,48,45,49,46,44,98,94,88,30.37,30.24,4,1,13,0.07
2013-12-23,50,45,32,50,44,32,98,96,92,30.56,30.31,7,1,18,0.22
2013-12-24,38,34,30,38,34,30,99,98,98,30.64,30.51,1,0,4,0.00
2013-12-25,43,35,32,39,34,32,99,96,83,30.52,30.41,1,0,4,0.01
2013-12-26,46,34,29,39,33,29,99,94,75,30.43,30.26,1,0,4,0.00
2013-12-27,37,34,32,36,34,31,98,96,93,30.42,30.23,2,0,5,0.01
2013-12-28,46,40,35,42,37,34,97,92,79,30.53,30.42,1,0,3,0.00
2013-12-29,38,34,31,36,34,30,98,97,94,30.48,30.31,1,0,3,0.00
2013-12-30,40,38,33,39,36,32,98,96,91,30.32,30.20,2,0,5,0.00
2013-12-31,48,42,35,44,40,35,98,94,84,30.37,30.25,1,0,3,0.01
2014-1-1,46,40,35,43,39,34,99,96,86,30.39,30.27,1,0,4,0.01
2014-1-2,46,40,34,42,38,34,98,94,81,30.29,30.05,1,0,5,0.17